User: anonymous   Login
Location: Central Coast
(33.3208°S, 151.2336°E)
Time: 23:38:31
(UTC+11:00)
Language:

Tiangong 1 - Orbit

View from above orbital plane
View from above orbital plane
View from above satellite
View from above satellite

Ground track
Ground track

The orbit data is extracted from the following two-line orbital elements,

1 37820U 11053A   17292.09640322  .00033988  85541-5  12541-3 0  9992
2 37820  42.7550 156.9873 0020402 246.9217 244.9287 15.88355223347601
Epoch (UTC): 19 October 2017 02:18:49
Eccentricity: 0.0020402
inclination: 42.7550°
perigee height: 293 km
apogee height: 320 km
right ascension of ascending node: 156.9873°
argument of perigee: 246.9217°
revolutions per day: 15.88355223
mean anomaly at epoch: 244.9287°
orbit number at epoch: 34760

The dashed part of the orbit path shows where the satellite is in the earth's shadow,  

DLR